Location: Maiden
(35.5760°N, 81.2120°W)
Time: 10:35:25
(UTC-04:00)

Vanguard 2 - Pass Details

Date: 07 August 2021
Orbit: 552 x 2938 km, 32.9° (Epoch: 18 September)

Event Time Altitude Azimuth Distance (km) Brightness Sun altitude
Exits shadow 06:02:24 - 262° (W) 1,964 9.0 -7.5°
Reaches altitude 10° 06:02:45 10° 262° (W) 1,820 8.9 -7.4°
Maximum altitude 06:06:37 61° 181° (S) 648 7.1 -6.7°
Drops below altitude 10° 06:11:06 10° 101° (E) 2,099 10.7 -5.9°
Sets 06:13:51 0° 98° (E) 3,239 11.9 -5.4°
